This demonstration page uses our WeatherBlox Daily Observations layout. Learn more.

Left ArrowRight Arrow

39.29038, -76.61219

Hourly Observations for September 24, 2020

Temp ( °F °C ) Dew Point ( °F °C ) Humidity (%) Winds ( mph kmh ) Pressure ( in mb ) Visibility ( mi km ) Precip ( " mm )
12:54 am 00:54 Mostly Cloudy 62 16.7 52 11.1 70 70 WSW 5 7 29.96 1014 10 16 0.00 0.00
1:54 am 01:54 Mostly Cloudy 61 16.1 53 11.7 75 75 WSW 5 7 29.96 1014 10 16 0.00 0.00
2:54 am 02:54 Mostly Cloudy 60 15.6 53 11.7 78 78 WSW 5 7 29.95 1014 10 16 0.00 0.00
3:54 am 03:54 Mostly Cloudy 60 15.6 53 11.7 78 78 W 5 7 29.95 1014 10 16 0.00 0.00
4:54 am 04:54 Mostly Cloudy 60 15.6 53 11.7 78 78 W 3 6 29.95 1014 10 16 0.00 0.00
5:54 am 05:54 Cloudy 60 15.6 54 12.2 80 80 WSW 3 6 29.96 1015 10 16 0.00 0.00
6:54 am 06:54 Cloudy 58 14.4 54 12.2 87 87 W 3 6 29.98 1015 10 16 0.00 0.00
7:54 am 07:54 Cloudy 61 16.1 54 12.2 78 78 Calm 29.99 1016 10 16 0.00 0.00
8:54 am 08:54 Cloudy 64 17.8 56 13.3 75 75 Calm 30.00 1016 10 16 0.00 0.00
9:54 am 09:54 Cloudy 66 18.9 58 14.4 75 75 Calm 30.02 1017 10 16 0.00 0.00
10:54 am 10:54 Cloudy 70 21.1 57 13.9 64 64 VRB 3 6 30.02 1017 10 16 0.00 0.00
11:54 am 11:54 Cloudy 71 21.7 58 14.4 63 63 SW 3 6 30.02 1017 10 16 0.00 0.00
12:54 pm 12:54 Cloudy 72 22.2 59 15 64 64 NNW 3 6 30.01 1016 10 16 0.00 0.00
1:54 pm 13:54 Cloudy 72 22.2 58 14.4 61 61 S 3 6 30.01 1016 10 16 0.00 0.00
2:54 pm 14:54 Cloudy 73 22.8 57 13.9 57 57 Calm 29.98 1015 10 16 0.00 0.00
3:54 pm 15:54 Cloudy 73 22.8 59 15 62 62 W 3 6 30.00 1016 10 16 0.00 0.00
4:54 pm 16:54 Cloudy 72 22.2 60 15.6 66 66 Calm 29.98 1015 10 16 0.00 0.00
5:54 pm 17:54 Cloudy 71 21.7 61 16.1 71 71 SSW 5 7 30.01 1016 10 16 0.00 0.00
6:54 pm 18:54 Mostly Cloudy 70 21.1 61 16.1 73 73 Calm 30.01 1016 10 16 0.00 0.00
7:54 pm 19:54 Mostly Cloudy 67 19.4 61 16.1 81 81 SW 3 6 30.02 1017 10 16 0.00 0.00
8:54 pm 20:54 Mostly Cloudy 65 18.3 61 16.1 87 87 W 3 6 30.03 1017 10 16 0.00 0.00
9:54 pm 21:54 Mostly Cloudy 64 17.8 60 15.6 87 87 Calm 30.03 1017 10 16 0.00 0.00
10:54 pm 22:54 Mostly Cloudy 62 16.7 59 15 90 90 Calm 30.04 1017 10 16 0.00 0.00
11:54 pm 23:54 Mostly Cloudy 63 17.2 60 15.6 90 90 SW 7 11 30.04 1017 10 16 0.00 0.00

Powered by AerisWeather